UAE803 OMDB-OEJN

Flight info

Callsign UAE803
Flight time 2h 29m
Altitude 40000
Route KUTLI L519 ATUDO M318 GOLGU M550 RIBOT DCT MIGMA DCT ITRUX Y511 ASMIS T218 IMGUT M309 VEMEM
Aircraft A388/J-SADE3GHIJ1J2J3J4J5M1P2RWXYZ/LB1D1

Departure

Time 2026-04-26 12:02
Airport Dubai International Airport (OMDB)

Arrival

Time 2026-04-26 14:32
Airport King Abdulaziz International Airport (OEJN)
Time Latitude Longitude Altitude Speed Heading
2026-04-26 11:11 25.25170 55.35393 30 ft 0 kts 31°
2026-04-26 11:11 25.25181 55.35401 28 ft 0 kts 31°
2026-04-26 11:46 25.25172 55.35395 26 ft 4 kts 30°
2026-04-26 11:46 25.25148 55.35381 28 ft 4 kts 25°
2026-04-26 11:46 25.25123 55.35369 32 ft 4 kts 20°
2026-04-26 11:47 25.25097 55.35359 32 ft 4 kts 15°
2026-04-26 11:47 25.25071 55.35353 32 ft 4 kts
2026-04-26 11:47 25.25044 55.35351 31 ft 4 kts 351°
2026-04-26 11:47 25.25022 55.35361 32 ft 3 kts 307°
2026-04-26 11:48 25.25020 55.35363 32 ft 0 kts 302°
2026-04-26 11:51 25.25026 55.35353 32 ft 2 kts 302°
2026-04-26 11:52 25.25033 55.35341 32 ft 1 kts 302°
2026-04-26 11:52 25.25035 55.35337 32 ft 1 kts 302°
2026-04-26 11:52 25.25043 55.35323 32 ft 3 kts 302°
2026-04-26 11:52 25.25058 55.35296 30 ft 6 kts 302°
2026-04-26 11:53 25.25086 55.35250 30 ft 9 kts 305°
2026-04-26 11:53 25.25125 55.35190 30 ft 11 kts 307°
2026-04-26 11:53 25.25171 55.35120 32 ft 12 kts 304°
2026-04-26 11:54 25.25265 55.34955 30 ft 13 kts 301°
2026-04-26 11:54 25.25320 55.34869 30 ft 14 kts 314°
2026-04-26 11:54 25.25403 55.34820 31 ft 14 kts 350°
2026-04-26 11:54 25.25502 55.34829 28 ft 15 kts 20°
2026-04-26 11:55 25.25599 55.34887 30 ft 17 kts 31°
2026-04-26 11:55 25.25708 55.34959 29 ft 19 kts 31°
2026-04-26 11:55 25.25825 55.35036 26 ft 20 kts 31°
2026-04-26 11:55 25.25950 55.35120 26 ft 21 kts 31°
2026-04-26 11:56 25.26079 55.35206 27 ft 22 kts 31°
2026-04-26 11:56 25.26194 55.35284 30 ft 0 kts 32°
2026-04-26 11:56 25.26196 55.35285 30 ft 2 kts 45°
2026-04-26 11:56 25.26185 55.35328 31 ft 16 kts 147°
2026-04-26 11:57 25.26101 55.35391 29 ft 17 kts 134°
2026-04-26 11:57 25.26018 55.35509 28 ft 22 kts 122°
2026-04-26 11:57 25.25930 55.35667 28 ft 26 kts 122°
2026-04-26 11:57 25.25861 55.35788 28 ft 28 kts 122°
2026-04-26 11:58 25.25714 55.36047 28 ft 32 kts 122°
2026-04-26 11:58 25.25597 55.36254 29 ft 33 kts 122°
2026-04-26 11:58 25.25474 55.36473 29 ft 34 kts 122°
2026-04-26 11:58 25.25346 55.36702 29 ft 36 kts 121°
2026-04-26 11:59 25.25213 55.36936 29 ft 36 kts 122°
2026-04-26 11:59 25.25082 55.37174 30 ft 37 kts 121°
2026-04-26 11:59 25.24951 55.37408 31 ft 33 kts 122°
2026-04-26 11:59 25.24840 55.37606 30 ft 24 kts 122°
2026-04-26 12:00 25.24750 55.37767 30 ft 23 kts 122°
2026-04-26 12:00 25.24716 55.37827 29 ft 9 kts 122°
2026-04-26 12:00 25.24680 55.37897 29 ft 8 kts 106°
2026-04-26 12:00 25.24694 55.37959 30 ft 9 kts 45°
2026-04-26 12:01 25.24749 55.38005 34 ft 10 kts 23°
2026-04-26 12:01 25.24826 55.37987 35 ft 13 kts 307°
2026-04-26 12:01 25.24861 55.37929 35 ft 21 kts 302°
2026-04-26 12:01 25.25112 55.37474 37 ft 114 kts 302°
2026-04-26 12:02 25.25645 55.36516 50 ft 171 kts 301°
2026-04-26 12:02 25.26300 55.35354 460 ft 184 kts 301°
2026-04-26 12:02 25.27213 55.33728 993 ft 190 kts 303°
2026-04-26 12:02 25.27909 55.32470 1419 ft 191 kts 302°
2026-04-26 12:03 25.28372 55.31627 1714 ft 188 kts 303°
2026-04-26 12:03 25.29032 55.30420 2126 ft 185 kts 300°
2026-04-26 12:03 25.29306 55.29061 2548 ft 187 kts 265°
2026-04-26 12:03 25.28837 55.27719 2981 ft 190 kts 246°
2026-04-26 12:04 25.28244 55.26401 3400 ft 193 kts 248°
2026-04-26 12:04 25.27668 55.25044 3848 ft 197 kts 248°
2026-04-26 12:04 25.27088 55.23668 4281 ft 198 kts 248°
2026-04-26 12:04 25.26502 55.22284 4701 ft 199 kts 248°
2026-04-26 12:05 25.25903 55.20903 5117 ft 200 kts 242°
2026-04-26 12:05 25.24895 55.19840 5557 ft 204 kts 216°
2026-04-26 12:05 25.23673 55.19023 5993 ft 206 kts 215°
2026-04-26 12:05 25.22435 55.18214 6423 ft 208 kts 215°
2026-04-26 12:06 25.21205 55.17398 6836 ft 210 kts 215°
2026-04-26 12:06 25.19951 55.16559 7257 ft 211 kts 215°
2026-04-26 12:06 25.18694 55.15708 7666 ft 214 kts 216°
2026-04-26 12:06 25.17380 55.14812 8104 ft 230 kts 216°
2026-04-26 12:07 25.15961 55.13842 8559 ft 250 kts 215°
2026-04-26 12:07 25.14424 55.12794 9028 ft 269 kts 215°
2026-04-26 12:07 25.12776 55.11673 9508 ft 287 kts 214°
2026-04-26 12:07 25.11049 55.10514 9941 ft 293 kts 214°
2026-04-26 12:08 25.09294 55.09331 10360 ft 302 kts 214°
2026-04-26 12:08 25.07493 55.08106 10775 ft 316 kts 214°
2026-04-26 12:08 25.05585 55.06806 11205 ft 328 kts 214°
2026-04-26 12:08 25.03604 55.05460 11645 ft 341 kts 214°
2026-04-26 12:09 25.01552 55.04070 12091 ft 349 kts 214°
2026-04-26 12:09 24.99471 55.02660 12528 ft 353 kts 213°
2026-04-26 12:09 24.97372 55.01238 12985 ft 355 kts 213°
2026-04-26 12:09 24.95259 54.99807 13433 ft 358 kts 213°
2026-04-26 12:10 24.93135 54.98371 13859 ft 359 kts 213°
2026-04-26 12:10 24.91026 54.96947 14272 ft 361 kts 213°
2026-04-26 12:10 24.88878 54.95495 14694 ft 364 kts 213°
2026-04-26 12:10 24.86714 54.94033 15385 ft 365 kts 213°
2026-04-26 12:11 24.84480 54.92665 16008 ft 369 kts 210°
2026-04-26 12:11 24.82207 54.91317 16646 ft 372 kts 210°
2026-04-26 12:11 24.79922 54.89954 17252 ft 375 kts 210°
2026-04-26 12:11 24.77615 54.88577 17863 ft 379 kts 210°
2026-04-26 12:12 24.75288 54.87188 18442 ft 381 kts 210°
2026-04-26 12:12 24.72955 54.85796 19015 ft 382 kts 210°
2026-04-26 12:12 24.70644 54.84417 19572 ft 383 kts 210°
2026-04-26 12:12 24.69060 54.83472 19949 ft 384 kts 210°
2026-04-26 12:13 24.65968 54.81567 20676 ft 386 kts 212°
2026-04-26 12:13 24.63651 54.80067 21208 ft 387 kts 213°
2026-04-26 12:13 24.61327 54.78557 21767 ft 389 kts 213°
2026-04-26 12:13 24.58993 54.77048 22315 ft 390 kts 212°
2026-04-26 12:14 24.56648 54.75541 22848 ft 392 kts 212°
2026-04-26 12:14 24.54290 54.74031 23368 ft 393 kts 212°
2026-04-26 12:14 24.51919 54.72514 23812 ft 395 kts 212°
2026-04-26 12:14 24.49534 54.70982 24183 ft 399 kts 213°
2026-04-26 12:15 24.47161 54.69457 24558 ft 402 kts 213°
2026-04-26 12:15 24.44737 54.67900 24956 ft 405 kts 213°
2026-04-26 12:15 24.42295 54.66334 25344 ft 408 kts 213°
2026-04-26 12:15 24.39830 54.64757 25728 ft 412 kts 213°
2026-04-26 12:16 24.37349 54.63171 26147 ft 415 kts 213°
2026-04-26 12:16 24.34842 54.61570 26561 ft 418 kts 213°
2026-04-26 12:16 24.32318 54.59959 26992 ft 422 kts 213°
2026-04-26 12:16 24.29772 54.58334 27455 ft 425 kts 214°
2026-04-26 12:17 24.27249 54.56623 27892 ft 427 kts 218°
2026-04-26 12:17 24.24995 54.54583 28340 ft 426 kts 229°
2026-04-26 12:17 24.23129 54.52069 28836 ft 426 kts 238°
2026-04-26 12:17 24.21530 54.49330 29336 ft 428 kts 242°
2026-04-26 12:18 24.20044 54.46492 29834 ft 431 kts 243°
2026-04-26 12:18 24.18583 54.43607 30281 ft 435 kts 244°
2026-04-26 12:18 24.17114 54.40701 30731 ft 438 kts 244°
2026-04-26 12:18 24.15628 54.37781 31191 ft 441 kts 244°
2026-04-26 12:19 24.14125 54.34845 31630 ft 444 kts 244°
2026-04-26 12:19 24.12605 54.31887 32052 ft 447 kts 245°
2026-04-26 12:19 24.11092 54.28949 32478 ft 450 kts 245°
2026-04-26 12:19 24.09546 54.25951 32928 ft 454 kts 245°
2026-04-26 12:20 24.07991 54.22937 33345 ft 457 kts 245°
2026-04-26 12:20 24.06422 54.19898 33762 ft 460 kts 246°
2026-04-26 12:20 24.04843 54.16840 34148 ft 463 kts 246°
2026-04-26 12:20 24.03253 54.13763 34553 ft 465 kts 246°
2026-04-26 12:21 24.01657 54.10681 35051 ft 465 kts 246°
2026-04-26 12:21 24.00067 54.07611 35598 ft 464 kts 246°
2026-04-26 12:21 23.98472 54.04546 36122 ft 463 kts 245°
2026-04-26 12:21 23.96865 54.01501 36656 ft 462 kts 245°
2026-04-26 12:22 23.95276 53.98507 37176 ft 461 kts 245°
2026-04-26 12:22 23.93668 53.95478 37709 ft 460 kts 245°
2026-04-26 12:22 23.92067 53.92457 38216 ft 459 kts 245°
2026-04-26 12:22 23.90469 53.89441 38687 ft 458 kts 245°
2026-04-26 12:23 23.88865 53.86411 38863 ft 464 kts 245°
2026-04-26 12:23 23.85677 53.80405 38876 ft 454 kts 245°
2026-04-26 12:24 23.82524 53.74462 38876 ft 456 kts 245°
2026-04-26 12:24 23.79338 53.68465 38878 ft 457 kts 245°
2026-04-26 12:25 23.74550 53.59471 38876 ft 457 kts 245°
2026-04-26 12:25 23.71352 53.53472 38884 ft 457 kts 245°
2026-04-26 12:26 23.68182 53.47511 38875 ft 457 kts 245°
2026-04-26 12:26 23.64999 53.41496 38876 ft 458 kts 245°
2026-04-26 12:27 23.61813 53.35486 38877 ft 458 kts 245°
2026-04-26 12:27 23.58621 53.29476 38876 ft 458 kts 245°
2026-04-26 12:28 23.55447 53.23508 38880 ft 458 kts 245°
2026-04-26 12:28 23.52245 53.17496 38887 ft 459 kts 245°
2026-04-26 12:29 23.49040 53.11485 38889 ft 459 kts 245°
2026-04-26 12:30 23.44223 53.02463 38865 ft 459 kts 245°
2026-04-26 12:30 23.41031 52.96495 38868 ft 459 kts 245°
2026-04-26 12:31 23.36335 52.87411 38874 ft 459 kts 246°
2026-04-26 12:31 23.33237 52.81338 38879 ft 459 kts 246°
2026-04-26 12:32 23.30122 52.75270 38876 ft 459 kts 246°
2026-04-26 12:33 23.25462 52.66221 38856 ft 459 kts 245°
2026-04-26 12:33 23.22336 52.60160 38851 ft 460 kts 245°
2026-04-26 12:34 23.19215 52.54095 38866 ft 459 kts 247°
2026-04-26 12:34 23.16745 52.47758 38863 ft 453 kts 256°
2026-04-26 12:35 23.14730 52.41315 38862 ft 454 kts 255°
2026-04-26 12:35 23.12671 52.34835 38862 ft 454 kts 255°
2026-04-26 12:36 23.10614 52.28357 39113 ft 455 kts 255°
2026-04-26 12:36 23.09581 52.25108 39346 ft 455 kts 255°
2026-04-26 12:36 23.08549 52.21863 39565 ft 455 kts 255°
2026-04-26 12:36 23.07517 52.18620 39797 ft 455 kts 255°
2026-04-26 12:37 23.06494 52.15409 39861 ft 457 kts 255°
2026-04-26 12:37 23.04408 52.08866 39860 ft 459 kts 255°
2026-04-26 12:38 23.02316 52.02321 39862 ft 459 kts 255°
2026-04-26 12:38 23.00221 51.95772 39861 ft 459 kts 255°
2026-04-26 12:39 22.98124 51.89228 39866 ft 459 kts 255°
2026-04-26 12:39 22.96036 51.82724 39864 ft 460 kts 255°
2026-04-26 12:40 22.93929 51.76171 39867 ft 460 kts 255°
2026-04-26 12:40 22.91821 51.69624 39867 ft 460 kts 255°
2026-04-26 12:41 22.89708 51.63072 39862 ft 460 kts 255°
2026-04-26 12:41 22.87595 51.56531 39865 ft 460 kts 255°
2026-04-26 12:42 22.85634 51.49996 39859 ft 457 kts 259°
2026-04-26 12:42 22.84504 51.43256 39861 ft 453 kts 267°
2026-04-26 12:43 22.84244 51.36457 39858 ft 450 kts 272°
2026-04-26 12:43 22.84210 51.29665 39863 ft 451 kts 272°
2026-04-26 12:44 22.84161 51.22923 39865 ft 451 kts 272°
2026-04-26 12:44 22.84113 51.16131 39863 ft 450 kts 272°
2026-04-26 12:45 22.84062 51.09345 39862 ft 450 kts 272°
2026-04-26 12:45 22.84007 51.02555 39869 ft 450 kts 272°
2026-04-26 12:46 22.83951 50.95817 39867 ft 450 kts 272°
2026-04-26 12:46 22.83891 50.89032 39870 ft 450 kts 272°
2026-04-26 12:47 22.83828 50.82256 39864 ft 449 kts 271°
2026-04-26 12:47 22.83762 50.75484 39864 ft 449 kts 271°
2026-04-26 12:48 22.83694 50.68716 39869 ft 449 kts 271°
2026-04-26 12:48 22.83623 50.61993 39867 ft 449 kts 271°
2026-04-26 12:49 22.83549 50.55235 39867 ft 448 kts 271°
2026-04-26 12:49 22.83472 50.48481 39870 ft 448 kts 271°
2026-04-26 12:50 22.83392 50.41727 39869 ft 448 kts 271°
2026-04-26 12:50 22.83311 50.35025 39867 ft 448 kts 271°
2026-04-26 12:51 22.83225 50.28281 39865 ft 447 kts 271°
2026-04-26 12:51 22.83137 50.21540 39863 ft 447 kts 271°
2026-04-26 12:52 22.83047 50.14805 39861 ft 447 kts 271°
2026-04-26 12:52 22.82954 50.08116 39860 ft 447 kts 271°
2026-04-26 12:53 22.82857 50.01387 39854 ft 446 kts 271°
2026-04-26 12:53 22.82758 49.94662 39861 ft 446 kts 271°
2026-04-26 12:54 22.82656 49.87938 39855 ft 446 kts 271°
2026-04-26 12:54 22.82552 49.81261 39856 ft 446 kts 271°
2026-04-26 12:55 22.82445 49.74547 39861 ft 446 kts 271°
2026-04-26 12:55 22.82335 49.67835 39857 ft 445 kts 271°
2026-04-26 12:56 22.82222 49.61124 39862 ft 445 kts 271°
2026-04-26 12:56 22.82106 49.54426 39860 ft 445 kts 271°
2026-04-26 12:57 22.81989 49.47770 39858 ft 444 kts 270°
2026-04-26 12:57 22.81868 49.41076 39861 ft 444 kts 270°
2026-04-26 12:58 22.81681 49.31046 39864 ft 443 kts 270°
2026-04-26 12:58 22.81553 49.24368 39861 ft 443 kts 270°
2026-04-26 12:59 22.81424 49.17737 39861 ft 443 kts 270°
2026-04-26 12:59 22.81291 49.11066 39858 ft 442 kts 270°
2026-04-26 13:00 22.81155 49.04401 39866 ft 442 kts 270°
2026-04-26 13:00 22.81016 48.97743 39860 ft 442 kts 270°
2026-04-26 13:01 22.80875 48.91084 39859 ft 442 kts 270°
2026-04-26 13:01 22.80732 48.84471 39861 ft 442 kts 270°
2026-04-26 13:02 22.80586 48.77820 39861 ft 442 kts 270°
2026-04-26 13:02 22.80436 48.71165 39864 ft 442 kts 270°
2026-04-26 13:03 22.80284 48.64509 39867 ft 442 kts 270°
2026-04-26 13:03 22.80130 48.57897 39871 ft 442 kts 270°
2026-04-26 13:04 22.79972 48.51241 39866 ft 442 kts 270°
2026-04-26 13:04 22.79812 48.44580 39877 ft 442 kts 270°
2026-04-26 13:05 22.79649 48.37924 39868 ft 442 kts 270°
2026-04-26 13:05 22.79484 48.31312 39871 ft 442 kts 270°
2026-04-26 13:06 22.79315 48.24661 39866 ft 441 kts 270°
2026-04-26 13:06 22.79144 48.18010 39865 ft 441 kts 270°
2026-04-26 13:07 22.78970 48.11365 39869 ft 441 kts 270°
2026-04-26 13:07 22.78794 48.04770 39871 ft 441 kts 270°
2026-04-26 13:08 22.78615 47.98132 39872 ft 441 kts 269°
2026-04-26 13:08 22.78433 47.91492 39868 ft 441 kts 269°
2026-04-26 13:09 22.78248 47.84859 39871 ft 440 kts 269°
2026-04-26 13:09 22.78061 47.78231 39868 ft 440 kts 269°
2026-04-26 13:10 22.77872 47.71643 39873 ft 440 kts 269°
2026-04-26 13:10 22.77680 47.65015 39886 ft 440 kts 269°
2026-04-26 13:11 22.77484 47.58386 39883 ft 440 kts 269°
2026-04-26 13:11 22.77286 47.51752 39885 ft 440 kts 269°
2026-04-26 13:12 22.77086 47.45168 39889 ft 440 kts 269°
2026-04-26 13:12 22.76882 47.38538 39887 ft 440 kts 269°
2026-04-26 13:13 22.76677 47.31908 39897 ft 440 kts 269°
2026-04-26 13:13 22.76470 47.25282 39895 ft 440 kts 269°
2026-04-26 13:14 22.76271 47.18700 39900 ft 440 kts 271°
2026-04-26 13:14 22.76656 47.12098 39899 ft 439 kts 275°
2026-04-26 13:15 22.77191 47.05510 39907 ft 439 kts 275°
2026-04-26 13:15 22.77712 46.98918 39908 ft 439 kts 275°
2026-04-26 13:16 22.78230 46.92323 39912 ft 439 kts 275°
2026-04-26 13:16 22.78741 46.85778 39908 ft 439 kts 275°
2026-04-26 13:17 22.79509 46.75889 39918 ft 439 kts 275°
2026-04-26 13:18 22.80270 46.65998 39926 ft 439 kts 275°
2026-04-26 13:19 22.81022 46.56146 39931 ft 439 kts 275°
2026-04-26 13:19 22.81522 46.49553 39931 ft 439 kts 275°
2026-04-26 13:20 22.82020 46.42951 39932 ft 439 kts 275°
2026-04-26 13:20 22.82514 46.36360 39932 ft 439 kts 275°
2026-04-26 13:21 22.82999 46.29809 39931 ft 439 kts 275°
2026-04-26 13:21 22.83485 46.23223 39927 ft 439 kts 275°
2026-04-26 13:22 22.83968 46.16639 39925 ft 438 kts 275°
2026-04-26 13:22 22.84448 46.10047 39927 ft 438 kts 275°
2026-04-26 13:23 22.84922 46.03507 39926 ft 438 kts 275°
2026-04-26 13:23 22.85398 45.96924 39916 ft 438 kts 275°
2026-04-26 13:24 22.85869 45.90352 39914 ft 437 kts 275°
2026-04-26 13:24 22.86337 45.83778 39909 ft 437 kts 275°
2026-04-26 13:25 22.86802 45.77212 39902 ft 437 kts 275°
2026-04-26 13:25 22.87261 45.70694 39903 ft 436 kts 275°
2026-04-26 13:26 22.87721 45.64138 39903 ft 436 kts 275°
2026-04-26 13:26 22.88177 45.57587 39900 ft 436 kts 275°
2026-04-26 13:27 22.88630 45.51032 39897 ft 436 kts 275°
2026-04-26 13:27 22.89078 45.44528 39897 ft 435 kts 275°
2026-04-26 13:28 22.89525 45.37981 39900 ft 435 kts 275°
2026-04-26 13:28 22.89970 45.31435 39896 ft 435 kts 275°
2026-04-26 13:29 22.90412 45.24886 39900 ft 435 kts 274°
2026-04-26 13:29 22.90849 45.18380 39902 ft 435 kts 274°
2026-04-26 13:30 22.91286 45.11835 39900 ft 435 kts 274°
2026-04-26 13:30 22.91721 45.05292 39902 ft 435 kts 274°
2026-04-26 13:31 22.92151 44.98740 39902 ft 435 kts 274°
2026-04-26 13:31 22.92575 44.92234 39902 ft 435 kts 274°
2026-04-26 13:32 22.93001 44.85682 39901 ft 436 kts 274°
2026-04-26 13:32 22.93425 44.79123 39903 ft 436 kts 274°
2026-04-26 13:33 22.93845 44.72563 39912 ft 436 kts 274°
2026-04-26 13:33 22.94135 44.66043 39908 ft 436 kts 270°
2026-04-26 13:34 22.93860 44.59470 39901 ft 436 kts 268°
2026-04-26 13:34 22.93577 44.52902 39901 ft 436 kts 268°
2026-04-26 13:35 22.93295 44.46331 39897 ft 436 kts 268°
2026-04-26 13:35 22.93008 44.39807 39892 ft 436 kts 268°
2026-04-26 13:36 22.92715 44.33246 39894 ft 436 kts 268°
2026-04-26 13:36 22.92419 44.26678 39894 ft 436 kts 268°
2026-04-26 13:37 22.92120 44.20108 39891 ft 436 kts 268°
2026-04-26 13:37 22.91821 44.13583 39895 ft 436 kts 268°
2026-04-26 13:38 22.91517 44.07015 39896 ft 436 kts 268°
2026-04-26 13:38 22.91209 44.00435 39902 ft 436 kts 268°
2026-04-26 13:39 22.90900 43.93869 39904 ft 436 kts 268°
2026-04-26 13:39 22.90588 43.87299 39907 ft 436 kts 268°
2026-04-26 13:40 22.90275 43.80781 39916 ft 436 kts 268°
2026-04-26 13:40 22.89958 43.74220 39921 ft 435 kts 268°
2026-04-26 13:41 22.89638 43.67666 39921 ft 435 kts 268°
2026-04-26 13:41 22.89316 43.61114 39922 ft 435 kts 268°
2026-04-26 13:42 22.88994 43.54613 39927 ft 435 kts 268°
2026-04-26 13:42 22.88667 43.48074 39929 ft 434 kts 268°
2026-04-26 13:43 22.88337 43.41537 39937 ft 434 kts 268°
2026-04-26 13:43 22.88005 43.35008 39935 ft 434 kts 268°
2026-04-26 13:44 22.87673 43.28526 39939 ft 433 kts 268°
2026-04-26 13:44 22.87337 43.22011 39946 ft 433 kts 268°
2026-04-26 13:45 22.86998 43.15498 39951 ft 432 kts 268°
2026-04-26 13:45 22.86657 43.08990 39957 ft 432 kts 268°
2026-04-26 13:46 22.86316 43.02535 39959 ft 431 kts 268°
2026-04-26 13:46 22.85970 42.96045 39965 ft 431 kts 268°
2026-04-26 13:47 22.85622 42.89566 39972 ft 430 kts 267°
2026-04-26 13:47 22.85272 42.83087 39973 ft 430 kts 267°
2026-04-26 13:48 22.84919 42.76620 39978 ft 429 kts 267°
2026-04-26 13:48 22.84567 42.70210 39980 ft 429 kts 267°
2026-04-26 13:49 22.84211 42.63764 39984 ft 428 kts 267°
2026-04-26 13:49 22.83852 42.57328 39994 ft 427 kts 267°
2026-04-26 13:50 22.83494 42.50943 39998 ft 427 kts 267°
2026-04-26 13:50 22.83131 42.44528 40002 ft 426 kts 267°
2026-04-26 13:51 22.82766 42.38115 40009 ft 426 kts 267°
2026-04-26 13:51 22.82399 42.31710 40011 ft 425 kts 267°
2026-04-26 13:52 22.82030 42.25314 40019 ft 425 kts 267°
2026-04-26 13:52 22.81661 42.18963 40025 ft 425 kts 267°
2026-04-26 13:53 22.81287 42.12570 40022 ft 425 kts 267°
2026-04-26 13:53 22.80910 42.06180 40024 ft 425 kts 267°
2026-04-26 13:54 22.80531 41.99791 40026 ft 425 kts 267°
2026-04-26 13:54 22.80154 41.93442 40029 ft 425 kts 267°
2026-04-26 13:55 22.79468 41.84943 40026 ft 426 kts 265°
2026-04-26 13:56 22.78462 41.74282 40028 ft 426 kts 265°
2026-04-26 13:56 22.77855 41.67933 40031 ft 427 kts 265°
2026-04-26 13:57 22.77239 41.61530 40035 ft 428 kts 265°
2026-04-26 13:57 22.76617 41.55110 40042 ft 429 kts 265°
2026-04-26 13:58 22.75993 41.48685 40045 ft 429 kts 265°
2026-04-26 13:58 22.75369 41.42290 40050 ft 430 kts 265°
2026-04-26 13:59 22.74708 41.35843 40051 ft 431 kts 262°
2026-04-26 13:59 22.73438 41.29491 40053 ft 433 kts 256°
2026-04-26 14:00 22.69188 41.17280 40049 ft 436 kts 251°
2026-04-26 14:01 22.66958 41.11175 40054 ft 436 kts 251°
2026-04-26 14:01 22.64720 41.05072 40050 ft 437 kts 251°
2026-04-26 14:02 22.62473 40.98962 40034 ft 435 kts 251°
2026-04-26 14:02 22.61361 40.95944 39925 ft 428 kts 251°
2026-04-26 14:02 22.60262 40.92962 39478 ft 425 kts 251°
2026-04-26 14:02 22.59183 40.90034 38883 ft 425 kts 251°
2026-04-26 14:03 22.58090 40.87068 38155 ft 425 kts 251°
2026-04-26 14:03 22.57006 40.84129 37362 ft 426 kts 251°
2026-04-26 14:03 22.55891 40.81109 36553 ft 427 kts 251°
2026-04-26 14:03 22.54787 40.78117 35738 ft 429 kts 250°
2026-04-26 14:04 22.53679 40.75120 34931 ft 430 kts 250°
2026-04-26 14:04 22.52570 40.72123 34340 ft 428 kts 250°
2026-04-26 14:04 22.52211 40.71155 34209 ft 428 kts 250°
2026-04-26 14:06 22.43697 40.48215 32250 ft 422 kts 250°
2026-04-26 14:06 22.42602 40.45272 31894 ft 420 kts 250°
2026-04-26 14:06 22.41513 40.42348 31322 ft 418 kts 250°
2026-04-26 14:07 22.40433 40.39451 30770 ft 413 kts 250°
2026-04-26 14:07 22.39365 40.36588 30218 ft 408 kts 250°
2026-04-26 14:07 22.38311 40.33763 29608 ft 403 kts 250°
2026-04-26 14:07 22.37286 40.31017 29095 ft 396 kts 250°
2026-04-26 14:08 22.36264 40.28281 28561 ft 390 kts 250°
2026-04-26 14:08 22.35257 40.25584 28031 ft 384 kts 250°
2026-04-26 14:08 22.34263 40.22927 27507 ft 379 kts 249°
2026-04-26 14:08 22.33283 40.20303 26988 ft 375 kts 249°
2026-04-26 14:09 22.32313 40.17712 26474 ft 371 kts 249°
2026-04-26 14:09 22.31350 40.15142 25950 ft 367 kts 248°
2026-04-26 14:09 22.30397 40.12599 25440 ft 365 kts 248°
2026-04-26 14:09 22.29448 40.10068 24936 ft 362 kts 248°
2026-04-26 14:10 22.28506 40.07556 24429 ft 360 kts 247°
2026-04-26 14:10 22.27580 40.05088 23917 ft 358 kts 247°
2026-04-26 14:10 22.26598 40.02624 23359 ft 356 kts 243°
2026-04-26 14:10 22.25375 40.00318 22842 ft 352 kts 237°
2026-04-26 14:11 22.22679 39.95963 21915 ft 344 kts 237°
2026-04-26 14:11 22.21388 39.93843 21794 ft 331 kts 237°
2026-04-26 14:11 22.20147 39.91805 21646 ft 320 kts 237°
2026-04-26 14:12 22.18933 39.89812 21403 ft 316 kts 237°
2026-04-26 14:12 22.17726 39.87836 21166 ft 315 kts 237°
2026-04-26 14:12 22.16535 39.85886 20912 ft 315 kts 237°
2026-04-26 14:12 22.15332 39.83919 20659 ft 314 kts 237°
2026-04-26 14:13 22.12932 39.79996 20138 ft 313 kts 237°
2026-04-26 14:13 22.11739 39.78049 19818 ft 309 kts 237°
2026-04-26 14:13 22.10559 39.76122 19487 ft 306 kts 238°
2026-04-26 14:14 22.09389 39.74213 19152 ft 304 kts 238°
2026-04-26 14:14 22.08229 39.72320 18830 ft 301 kts 238°
2026-04-26 14:14 22.07081 39.70448 18478 ft 299 kts 238°
2026-04-26 14:14 22.05948 39.68601 18138 ft 297 kts 238°
2026-04-26 14:15 22.04814 39.66754 17819 ft 294 kts 238°
2026-04-26 14:15 22.03695 39.64931 17515 ft 289 kts 238°
2026-04-26 14:15 22.02590 39.63132 17190 ft 286 kts 238°
2026-04-26 14:15 22.01496 39.61350 16882 ft 283 kts 238°
2026-04-26 14:16 22.00414 39.59589 16571 ft 281 kts 238°
2026-04-26 14:16 21.99341 39.57845 16266 ft 278 kts 238°
2026-04-26 14:16 21.98281 39.56120 15989 ft 275 kts 238°
2026-04-26 14:16 21.97244 39.54435 15704 ft 272 kts 238°
2026-04-26 14:17 21.96247 39.52813 15435 ft 270 kts 238°
2026-04-26 14:17 21.95210 39.51126 15135 ft 271 kts 238°
2026-04-26 14:17 21.94196 39.49414 14963 ft 276 kts 242°
2026-04-26 14:17 21.93323 39.47496 14557 ft 293 kts 245°
2026-04-26 14:18 21.92448 39.45500 14120 ft 296 kts 245°
2026-04-26 14:18 21.91562 39.43497 13737 ft 295 kts 245°
2026-04-26 14:18 21.90695 39.41547 13607 ft 283 kts 245°
2026-04-26 14:18 21.89877 39.39712 13452 ft 268 kts 245°
2026-04-26 14:19 21.89084 39.37935 13284 ft 252 kts 245°
2026-04-26 14:19 21.88353 39.36297 13006 ft 243 kts 245°
2026-04-26 14:19 21.87625 39.34661 12419 ft 243 kts 245°
2026-04-26 14:19 21.86888 39.33006 11809 ft 246 kts 244°
2026-04-26 14:20 21.86140 39.31332 11217 ft 250 kts 244°
2026-04-26 14:20 21.85384 39.29639 10631 ft 253 kts 244°
2026-04-26 14:20 21.84620 39.27925 10057 ft 255 kts 244°
2026-04-26 14:20 21.83858 39.26219 9469 ft 258 kts 243°
2026-04-26 14:21 21.83075 39.24510 9113 ft 248 kts 237°
2026-04-26 14:21 21.81921 39.23224 8810 ft 237 kts 211°
2026-04-26 14:21 21.80372 39.22672 8379 ft 237 kts 184°
2026-04-26 14:21 21.78749 39.22939 7955 ft 239 kts 161°
2026-04-26 14:22 21.77193 39.23585 7535 ft 240 kts 162°
2026-04-26 14:22 21.75634 39.24204 7142 ft 236 kts 162°
2026-04-26 14:22 21.74103 39.24801 7023 ft 232 kts 162°
2026-04-26 14:22 21.72580 39.25393 7002 ft 233 kts 162°
2026-04-26 14:23 21.71051 39.25990 7003 ft 234 kts 162°
2026-04-26 14:23 21.69524 39.26594 6942 ft 233 kts 162°
2026-04-26 14:23 21.68026 39.27187 6707 ft 233 kts 161°
2026-04-26 14:23 21.66519 39.27783 6422 ft 229 kts 161°
2026-04-26 14:24 21.65029 39.28372 6017 ft 228 kts 161°
2026-04-26 14:24 21.63542 39.28961 5600 ft 227 kts 161°
2026-04-26 14:24 21.62067 39.29544 5211 ft 225 kts 161°
2026-04-26 14:24 21.60606 39.30118 4820 ft 222 kts 161°
2026-04-26 14:25 21.59156 39.30685 4413 ft 221 kts 161°
2026-04-26 14:25 21.57709 39.31251 4010 ft 221 kts 161°
2026-04-26 14:25 21.56266 39.31818 3619 ft 220 kts 162°
2026-04-26 14:25 21.54845 39.32373 3179 ft 222 kts 162°
2026-04-26 14:26 21.53377 39.32939 2704 ft 225 kts 166°
2026-04-26 14:26 21.51805 39.32972 2081 ft 234 kts 199°
2026-04-26 14:26 21.50420 39.32046 1783 ft 234 kts 232°
2026-04-26 14:26 21.49766 39.30548 1696 ft 216 kts 267°
2026-04-26 14:27 21.50022 39.29003 1723 ft 213 kts 298°
2026-04-26 14:27 21.51003 39.27835 1721 ft 213 kts 321°
2026-04-26 14:27 21.52169 39.26870 1721 ft 210 kts 320°
2026-04-26 14:27 21.53291 39.25891 1693 ft 211 kts 319°
2026-04-26 14:28 21.54421 39.24878 1689 ft 209 kts 319°
2026-04-26 14:28 21.55452 39.23969 1696 ft 176 kts 320°
2026-04-26 14:28 21.56374 39.23184 1709 ft 165 kts 321°
2026-04-26 14:28 21.57274 39.22441 1707 ft 163 kts 322°
2026-04-26 14:29 21.58183 39.21710 1694 ft 163 kts 324°
2026-04-26 14:29 21.59153 39.21099 1619 ft 160 kts 334°
2026-04-26 14:29 21.60108 39.20661 1385 ft 140 kts 337°
2026-04-26 14:29 21.60983 39.20295 1227 ft 136 kts 337°
2026-04-26 14:30 21.61871 39.19939 1051 ft 136 kts 339°
2026-04-26 14:30 21.62758 39.19591 876 ft 135 kts 338°
2026-04-26 14:30 21.63631 39.19238 679 ft 134 kts 336°
2026-04-26 14:30 21.64489 39.18894 521 ft 129 kts 337°
2026-04-26 14:31 21.65340 39.18556 373 ft 133 kts 338°
2026-04-26 14:31 21.66214 39.18221 218 ft 133 kts 338°
2026-04-26 14:31 21.67080 39.17878 57 ft 130 kts 338°
2026-04-26 14:31 21.67780 39.17602 51 ft 83 kts 340°
2026-04-26 14:32 21.68122 39.17470 48 ft 39 kts 340°
2026-04-26 14:32 21.68322 39.17334 48 ft 28 kts 309°
2026-04-26 14:32 21.68393 39.17237 48 ft 10 kts 307°
2026-04-26 14:32 21.68415 39.17206 46 ft 1 kts 306°
2026-04-26 14:33 21.68415 39.17205 46 ft 0 kts 306°
2026-04-26 14:33 21.68416 39.17205 46 ft 1 kts 306°
2026-04-26 14:34 21.68419 39.17200 45 ft 0 kts 306°
2026-04-26 14:34 21.68435 39.17174 48 ft 2 kts 283°
2026-04-26 14:34 21.68431 39.17151 48 ft 3 kts 250°
2026-04-26 14:35 21.68430 39.17148 48 ft 1 kts 259°
2026-04-26 14:35 21.68435 39.17128 48 ft 6 kts 298°
2026-04-26 14:35 21.68468 39.17083 45 ft 10 kts 311°
2026-04-26 14:36 21.68480 39.17030 46 ft 5 kts 227°
2026-04-26 14:36 21.68419 39.17027 48 ft 10 kts 166°
2026-04-26 14:36 21.68332 39.17056 48 ft 16 kts 161°
2026-04-26 14:36 21.68212 39.17102 48 ft 21 kts 160°
2026-04-26 14:37 21.68116 39.17140 50 ft 23 kts 160°
2026-04-26 14:37 21.68014 39.17179 53 ft 1 kts 161°
2026-04-26 14:37 21.68006 39.17182 48 ft 2 kts 174°
2026-04-26 14:37 21.67985 39.17175 48 ft 5 kts 216°
2026-04-26 14:38 21.67957 39.17130 50 ft 10 kts 246°
2026-04-26 14:38 21.67915 39.17059 49 ft 12 kts 206°
2026-04-26 14:38 21.67829 39.17070 49 ft 15 kts 159°
2026-04-26 14:38 21.67712 39.17117 50 ft 20 kts 160°
2026-04-26 14:39 21.67593 39.17161 48 ft 17 kts 161°
2026-04-26 14:39 21.67478 39.17185 51 ft 16 kts 196°
2026-04-26 14:39 21.67384 39.17117 49 ft 17 kts 223°
2026-04-26 14:39 21.67319 39.17049 48 ft 10 kts 226°
2026-04-26 14:40 21.67293 39.17021 47 ft 0 kts 222°
2026-04-26 14:40 21.67288 39.17016 44 ft 2 kts 223°
2026-04-26 14:40 21.67264 39.16985 45 ft 9 kts 233°
2026-04-26 14:41 21.67236 39.16943 48 ft 2 kts 211°
2026-04-26 14:41 21.67216 39.16942 48 ft 3 kts 157°
2026-04-26 14:41 21.67193 39.16953 46 ft 2 kts 155°
2026-04-26 14:41 21.67171 39.16964 43 ft 3 kts 154°
2026-04-26 14:42 21.67166 39.16967 43 ft 0 kts 155°